[[{"header":{"parameterUnit":"m.s-1","parameterCategory":1,"la1":30.2991,"la2":30.254,"lo1":-89.0895,"lo2":-89.0444,"dy":0.0017,"dx":0.0017,"nx":28,"ny":28,"refTime":"2024-07-12T21:00:00:Z","depth":0,"parameterNumber":2,"parameterNumberName":"U-component_of_WINDS"},"data":[0,0,0,0,0,0,0,0,0,0,0,0,0,0,0,0,0,0,0,0,0,0,0,0,0,0,0,0,0,0,0,0,0,0,0,0,0,0,0,0,0,0,0,0,0,0,0,0,0,0,0,0,0,0,0,0,0,0,2.0244,2.0242,0,2.012,2.0119,2.0117,2.0038,2.0038,2.0037,2.0037,1.9912,1.9909,1.9906,0,0,0,0,0,0,0,0,0,0,0,0,0,2.0412,2.0409,2.0244,2.0242,2.0241,2.012,2.0119,2.0117,2.0038,2.0038,2.0037,2.0037,1.9913,1.9909,1.9906,0,0,0,0,0,0,0,0,0,0,0,0,0,2.0319,2.0409,2.0244,2.0187,2.0181,2.0121,2.0119,2.0117,2.0038,2.0038,2.0037,2.0036,1.9914,1.991,1.9905,1.9893,0,0,1.9892,1.989,0,0,0,0,0,0,0,0,2.0324,2.0313,2.0197,2.0191,2.0184,2.0094,2.0132,2.0042,2.0039,2.0092,2.0037,2.0036,1.9973,1.9964,1.9942,1.9887,1.9882,1.9892,1.9889,1.9887,1.9886,0,0,0,0,0,0,0,2.0331,2.0318,2.0195,2.0195,2.0187,2.0168,2.0154,2.0115,2.0038,2.0088,2.0082,2.0068,1.9969,1.9947,1.9939,1.988,1.9892,1.9888,1.9885,1.9884,1.9808,1.9809,0,0,0,0,0,0,2.0346,2.0324,2.0199,2.0191,2.0254,2.0165,2.0149,2.0123,2.0039,2.0025,2.0069,2.0065,1.9954,1.9944,1.9934,1.9914,1.9887,1.9883,1.9881,1.9808,1.9808,1.9809,0,0,0,0,0,0,2.035,2.0336,2.0204,2.0256,2.0237,2.0163,2.0134,2.0121,2.0098,2.0024,2.001,2.006,1.9953,1.994,1.9904,1.9908,1.9881,1.9877,1.9807,1.9808,1.9809,1.9874,0,0,0,0,0,0,2.0355,2.0338,2.0332,2.0256,2.0235,2.0176,2.0135,2.0119,2.0091,2.0085,2.0012,1.9999,1.9952,1.9911,1.9899,1.9902,1.9874,1.9806,1.9807,1.9808,1.9871,1.9877,1.9882,0,0,0,0,0,2.0362,2.0356,2.0333,2.0318,2.0227,2.0176,2.0164,2.0109,2.0092,2.0086,2.0038,2.0001,1.991,1.9907,1.9894,1.9896,1.9806,1.9807,1.9808,1.9868,1.9876,1.9882,0,0,0,0,0,0,2.0435,2.0345,2.0318,2.0287,2.024,2.0163,2.0153,2.0118,2.0075,2.0071,2.0005,1.9989,1.996,1.9924,1.9923,1.9879,1.9853,1.9852,1.9904,1.991,1.9915,1.9925,1.987,0,0,0,0,0,2.0448,2.0414,2.0337,2.0318,2.0295,2.0229,2.0205,2.0166,2.0115,2.0094,2.0044,1.9995,1.9955,1.993,1.989,1.9865,1.9848,1.9859,1.9865,1.987,1.987,1.9854,1.9858,1.9813,1.9813,1.9813,0,0,2.0474,2.042,2.0403,2.0331,2.029,2.0257,2.0212,2.0179,2.0154,2.0089,2.0052,2.0013,1.9954,1.9924,1.9908,1.9893,1.9878,1.9871,1.9876,1.9873,1.9855,1.986,1.9863,1.9814,1.9814,1.9814,0,0,2.0504,2.046,2.0439,2.0398,2.0336,2.0291,2.0287,2.0214,2.0186,2.0147,2.0098,2.0066,1.9999,1.9959,1.993,1.9945,1.991,1.9933,1.9962,1.9947,1.9951,1.9953,1.9958,1.9961,1.9933,1.9933,1.9933,0,2.0544,2.0492,2.0433,2.0402,2.0372,2.0311,2.0289,2.0252,2.018,2.0161,2.0145,2.0059,2.0015,1.9974,1.9978,1.9956,1.9948,1.9941,1.9955,1.9957,1.9959,1.9963,1.9965,1.9937,1.9936,1.9936,1.9936,0,2.0544,2.0509,2.0499,2.043,2.0399,2.0373,2.031,2.0285,2.0249,2.0207,2.0167,2.0113,2.0059,2.0047,2.0012,2.0001,1.9993,1.9967,1.994,1.9967,1.997,1.9971,1.9941,1.994,1.9939,1.9938,0,0,2.0618,2.0517,2.0514,2.0482,2.0408,2.038,2.0351,2.0298,2.0278,2.023,2.0204,2.0148,2.0123,2.009,2.005,2.0037,2.0051,2.0012,2.001,2.0021,2.0036,2.0056,2.0059,2.0027,2.0028,2.0028,2.004,0,2.0638,2.0582,2.0528,2.0492,2.0458,2.04,2.0374,2.0327,2.0286,2.0251,2.0206,2.0167,2.0137,2.0117,2.0101,2.0053,2.0054,2.0051,2.0003,2.0002,2.002,2.006,2.0082,2.0097,2.0041,2.0041,2.0041,0,2.0653,2.0607,2.0568,2.0497,2.0481,2.0459,2.0406,2.0374,2.0318,2.0289,2.0252,2.021,2.0176,2.0153,2.0106,2.0105,2.0082,2.0055,2.0055,2.0048,2.0024,2.0055,2.01,2.0103,2.0042,2.0042,2.0042,0,2.0711,2.064,2.0607,2.0581,2.0498,2.0484,2.0448,2.0392,2.0363,2.0317,2.0298,2.0249,2.0222,2.0185,2.013,2.0118,2.0088,2.006,2.0064,2.0065,2.0061,2.0062,2.0103,2.0046,2.0046,2.0046,2.0046,0,2.0739,2.0717,2.0632,2.0612,2.0585,2.0523,2.0499,2.0458,2.0408,2.0379,2.0325,2.0299,2.0228,2.0193,2.015,2.0118,2.0106,2.0082,2.0071,2.0087,2.009,2.0071,2.0069,2.0046,2.0046,2.0046,2.0046,0,2.08,2.0741,2.0702,2.0626,2.0606,2.059,2.0525,2.0503,2.0459,2.0422,2.041,2.0341,2.0297,2.0239,2.0177,2.0148,2.0121,2.0103,2.014,2.0133,2.014,2.014,2.0171,2.0171,2.0114,2.0115,2.0115,0,2.0821,2.0803,2.0725,2.0701,2.0667,2.063,2.0601,2.0538,2.051,2.0444,2.0431,2.0383,2.0341,2.0274,2.0218,2.0171,2.0152,2.0165,2.0144,2.0161,2.0152,2.0154,2.0152,2.0171,2.0172,2.0173,2.0173,0,2.0866,2.0838,2.0797,2.0747,2.0713,2.067,2.0625,2.0609,2.0536,2.0507,2.0461,2.0429,2.0365,2.0319,2.0263,2.0227,2.0188,2.018,2.0178,2.0195,2.0217,2.0205,2.0154,2.018,2.0179,2.0179,2.0179,2.0178,2.0908,2.0889,2.0831,2.0787,2.0746,2.0705,2.068,2.0633,2.0593,2.0537,2.0502,2.0458,2.0402,2.0324,2.0289,2.0253,2.0238,2.0236,2.0235,2.0235,2.0241,2.0222,2.0243,2.0243,2.0242,2.0242,2.0242,0,2.095,2.0909,2.087,2.0808,2.0773,2.0739,2.0687,2.0661,2.0622,2.0573,2.0533,2.0481,2.0435,2.0375,2.0325,2.0308,2.0289,2.0297,2.0298,2.029,2.0257,2.0264,2.0313,2.0313,2.0313,2.0313,2.0313,2.0313,2.0968,2.0934,2.0899,2.0844,2.0803,2.0759,2.0732,2.0694,2.0654,2.0598,2.0559,2.052,2.0466,2.0411,2.0368,2.0351,2.0335,2.0349,2.0327,2.0298,2.0292,2.0286,2.0292,2.0346,2.0346,2.0362,2.0363,2.0363]},{"header":{"parameterUnit":"m.s-1","parameterCategory":1,"la1":30.2991,"la2":30.254,"lo1":-89.0895,"lo2":-89.0444,"dy":0.0017,"dx":0.0017,"nx":28,"ny":28,"refTime":"2024-07-12T21:00:00:Z","depth":0,"parameterNumber":3,"parameterNumberName":"V-component_of_WINDS"},"data":[0,0,0,0,0,0,0,0,0,0,0,0,0,0,0,0,0,0,0,0,0,0,0,0,0,0,0,0,0,0,0,0,0,0,0,0,0,0,0,0,0,0,0,0,0,0,0,0,0,0,0,0,0,0,0,0,0,0,0.3183,0.3184,0,0.3204,0.3205,0.3205,0.3237,0.3238,0.3238,0.3239,0.3259,0.3259,0.3259,0,0,0,0,0,0,0,0,0,0,0,0,0,0.3171,0.3171,0.3183,0.3184,0.3184,0.3204,0.3205,0.3205,0.3237,0.3238,0.3239,0.3239,0.3259,0.3259,0.3259,0,0,0,0,0,0,0,0,0,0,0,0,0,0.3182,0.3171,0.3183,0.3203,0.3204,0.3204,0.3205,0.3205,0.3237,0.3238,0.3239,0.324,0.3259,0.3259,0.3259,0.3241,0,0,0.3259,0.3259,0,0,0,0,0,0,0,0,0.3182,0.3183,0.3199,0.3201,0.3203,0.3219,0.3208,0.3217,0.3237,0.3225,0.3239,0.324,0.3245,0.3246,0.3248,0.3242,0.3243,0.3259,0.3259,0.3259,0.3259,0,0,0,0,0,0,0,0.3181,0.3182,0.3192,0.32,0.3202,0.321,0.3213,0.321,0.323,0.3226,0.3228,0.323,0.3246,0.3248,0.3249,0.3244,0.3259,0.3259,0.3259,0.3259,0.3225,0.3224,0,0,0,0,0,0,0.3177,0.3181,0.3191,0.3192,0.3194,0.3209,0.3212,0.3213,0.323,0.3233,0.3229,0.3232,0.3248,0.3249,0.325,0.323,0.3259,0.3259,0.3259,0.3226,0.3225,0.3224,0,0,0,0,0,0,0.3177,0.3178,0.319,0.3187,0.319,0.3209,0.3209,0.3213,0.3215,0.3233,0.3236,0.3228,0.3248,0.325,0.3243,0.3231,0.3259,0.3259,0.3227,0.3225,0.3224,0.3191,0,0,0,0,0,0,0.3176,0.3178,0.3171,0.3187,0.319,0.3184,0.3209,0.3213,0.3215,0.3218,0.3232,0.3235,0.3249,0.3243,0.3243,0.3232,0.3259,0.3228,0.3226,0.3225,0.3193,0.3188,0.3184,0,0,0,0,0,0.3176,0.316,0.3171,0.3172,0.3182,0.3183,0.3184,0.3201,0.3214,0.3208,0.3219,0.3235,0.3233,0.3242,0.3243,0.3231,0.3229,0.3227,0.3225,0.3195,0.3189,0.3184,0,0,0,0,0,0,0.3142,0.3163,0.3174,0.3164,0.3171,0.3188,0.3181,0.3195,0.3199,0.3201,0.3222,0.3225,0.3216,0.3223,0.3233,0.3215,0.3233,0.3231,0.321,0.3205,0.3201,0.3199,0.3259,0,0,0,0,0,0.3133,0.3132,0.3151,0.314,0.3143,0.3161,0.3162,0.3175,0.3183,0.3186,0.3197,0.3205,0.3206,0.3206,0.3208,0.3195,0.3198,0.3187,0.3182,0.3179,0.3176,0.317,0.3165,0.3217,0.3217,0.3217,0,0,0.3115,0.3126,0.3124,0.3133,0.314,0.3139,0.3163,0.3161,0.316,0.3186,0.3181,0.3189,0.3199,0.3189,0.3185,0.3194,0.3163,0.3176,0.3173,0.3173,0.3167,0.3162,0.3158,0.3216,0.3216,0.3216,0,0,0.3081,0.309,0.3081,0.3088,0.31,0.3112,0.311,0.3125,0.3132,0.3127,0.3147,0.3146,0.3148,0.3154,0.3157,0.3127,0.3141,0.3127,0.3104,0.3097,0.3093,0.309,0.3078,0.3074,0.3125,0.3125,0.3125,0,0.3056,0.3055,0.3075,0.3071,0.3074,0.3099,0.3091,0.3097,0.3108,0.3109,0.312,0.3123,0.3131,0.3123,0.3116,0.3118,0.3116,0.3125,0.3092,0.3089,0.3086,0.3075,0.3071,0.3123,0.3123,0.3123,0.3124,0,0.3024,0.3023,0.3015,0.3026,0.3028,0.3022,0.3041,0.3041,0.3054,0.3065,0.306,0.3072,0.3076,0.3076,0.3088,0.3069,0.3075,0.3089,0.3107,0.3079,0.3069,0.3065,0.312,0.3121,0.3121,0.3122,0,0,0.2967,0.2991,0.2987,0.2992,0.3007,0.3007,0.3002,0.3007,0.3007,0.3014,0.301,0.3012,0.3025,0.3029,0.3042,0.3036,0.3011,0.3051,0.3052,0.3043,0.2991,0.2979,0.2974,0.3021,0.3021,0.302,0.299,0,0.2935,0.2929,0.2947,0.2935,0.2935,0.2959,0.2955,0.2963,0.2974,0.2975,0.2987,0.2987,0.3005,0.3008,0.3003,0.3015,0.3001,0.3018,0.3017,0.3017,0.3013,0.2969,0.2957,0.2928,0.2986,0.2986,0.2985,0,0.2897,0.2903,0.2891,0.2907,0.2908,0.2904,0.291,0.2911,0.2921,0.293,0.2934,0.2951,0.2947,0.2966,0.2961,0.2972,0.2973,0.2979,0.2979,0.2978,0.2998,0.2967,0.2919,0.2914,0.2979,0.298,0.298,0,0.2855,0.2861,0.2854,0.2858,0.2877,0.2874,0.2881,0.2893,0.2895,0.2901,0.2903,0.2908,0.2911,0.2914,0.2932,0.2944,0.2924,0.2945,0.2931,0.293,0.2924,0.2924,0.2875,0.2927,0.2927,0.2927,0.2927,0,0.2817,0.2808,0.2836,0.2832,0.2824,0.2846,0.2837,0.2847,0.2857,0.2855,0.2877,0.2875,0.2898,0.2899,0.2912,0.2906,0.2907,0.2913,0.2917,0.2911,0.291,0.2911,0.2913,0.2926,0.2926,0.2926,0.2926,0,0.2768,0.2787,0.2781,0.28,0.2805,0.2798,0.2814,0.2811,0.2824,0.2822,0.2822,0.2842,0.2844,0.2862,0.2867,0.2877,0.2865,0.2873,0.2861,0.2863,0.2848,0.2849,0.2796,0.279,0.2847,0.2847,0.2846,0,0.2742,0.2736,0.2755,0.2756,0.2762,0.2763,0.2766,0.2788,0.279,0.2802,0.2797,0.2801,0.2805,0.2807,0.2822,0.2826,0.2834,0.2815,0.2834,0.2829,0.2832,0.2832,0.2832,0.281,0.281,0.2809,0.2809,0,0.2693,0.2702,0.2706,0.2712,0.2715,0.2721,0.2729,0.2728,0.2752,0.2753,0.2756,0.2759,0.2765,0.2768,0.2776,0.2784,0.28,0.2803,0.28,0.2793,0.2786,0.2789,0.2849,0.2803,0.2804,0.2804,0.2805,0.2805,0.2654,0.265,0.2663,0.2666,0.2674,0.2681,0.2679,0.2692,0.2695,0.2702,0.2715,0.2716,0.2727,0.2739,0.2745,0.2746,0.2756,0.2751,0.275,0.2748,0.2745,0.2787,0.2748,0.2748,0.2748,0.2748,0.2748,0,0.2605,0.2615,0.2618,0.2628,0.263,0.2647,0.2656,0.2657,0.2658,0.2667,0.2671,0.2674,0.2678,0.2694,0.2699,0.2697,0.2704,0.2697,0.2697,0.2698,0.2736,0.2738,0.2691,0.2691,0.2691,0.2691,0.2691,0.2691,0.258,0.2574,0.2585,0.2584,0.2595,0.2596,0.26,0.2606,0.2614,0.2617,0.262,0.2631,0.2643,0.2649,0.2654,0.2658,0.2659,0.2649,0.2656,0.269,0.2696,0.2701,0.2703,0.2649,0.2649,0.2618,0.2618,0.2617]}]]